Regional Weather Roundup
Issued by NWS

Home | Current Version | Previous Version | Graphics & Text | Print | Product List | Glossary On
Versions: 1 2 3 4 5 6 7 8 9 10 11 12 13 14 15 16 17 18 19 20 21 22 23 24 25 26 27 28 29 30 31 32 33 34 35 36 37 38 39 40 41 42 43 44 45 46 47 48 49 50
000
ASUS43 KMKX 061321
RWRWI

WISCONSIN REGIONAL WEATHER ROUNDUP
NATIONAL WEATHER SERVICE MILWAUKEE/SULLIVAN WI
800 AM CDT WED MAY 06 2015

NOTE: "FAIR" INDICATES FEW OR NO CLOUDS BELOW 12,000 FEET WITH NO
SIGNIFICANT WEATHER AND/OR OBSTRUCTIONS TO VISIBILITY.

WIZ001-002-006>008-014>016-023>028-061400-
NORTHWEST WISCONSIN

CITY           SKY/WX    TMP DP  RH WIND       PRES   REMARKS
SUPERIOR ARPT  LGT RAIN  42  38  87 E5        30.13S
ASHLAND        CLOUDY    53  44  71 SE6       30.15S
HAYWARD        CLOUDY    53  47  79 VRB5      30.14S
SIREN          CLOUDY    54  50  86 SE7       30.11R
CUMBERLAND     CLOUDY    50  48  93 SE10G16   30.13R FOG
RICE LAKE      CLOUDY    53  49  89 E7        30.15R
CHETEK         CLOUDY    52  50  94 E9        30.13S
LADYSMITH      CLOUDY    51  49  90 SE7       30.17S
EAU CLAIRE     CLOUDY    54  50  86 E9        30.13S
MENOMONIE      CLOUDY    55  52  92 E10       30.13R FOG
NEW RICHMOND   CLOUDY    54  54  98 SE3       30.11R FOG
OSCEOLA        CLOUDY    55  55 100 SE9       30.13R FOG
$$

WIZ003>005-009-010-017-018-061400-
NORTH CENTRAL WISCONSIN

CITY           SKY/WX    TMP DP  RH WIND       PRES   REMARKS
MANITOWISH WTR RAIN      49  39  68 S12       30.19S
ARBOR VITAE    LGT RAIN  49  42  76 SE7       30.20S
WOODRUFF       LGT RAIN  49  42  76 SE7       30.20S
RHINELANDER    CLOUDY    47  40  76 SE7       30.21S
EAGLE RIVER    CLOUDY    52  30  43 SE3       30.21R
LAND O LAKES   PTSUNNY   52  32  45 S3        30.22R
PHILLIPS       RAIN      47  45  93 SE8       30.16S
TOMAHAWK       LGT RAIN  44  42  93 CALM      30.20F
MEDFORD        CLOUDY    48  43  83 E7        30.17F
MERRILL        CLOUDY    46  45  97 SE3       30.21F
$$

WIZ029-030-035-036-043>047-061400-
CENTRAL WISCONSIN

CITY           SKY/WX    TMP DP  RH WIND       PRES   REMARKS
WAUSAU         CLOUDY    48  44  86 E7        30.19S
MOSINEE        DRIZZLE   46  45  93 E8        30.20S
MARSHFIELD     CLOUDY    52  44  74 SE12      30.18R
STEVENS POINT  CLOUDY    49  42  76 E7        30.20S
WAUPACA        PTSUNNY   55  43  62 E3        30.21S
WAUTOMA        CLOUDY    52  46  82 E5        30.21S
WISC RAPIDS    CLOUDY    54  44  69 SE10      30.20S
CAMP DOUGLAS   CLOUDY    52  52 100 E9        30.16S FOG
$$

WIZ011>013-019>022-031-037>040-048>050-061400-
NORTHEAST WISCONSIN

CITY           SKY/WX    TMP DP  RH WIND       PRES   REMARKS
ANTIGO         LGT RAIN  45  41  87 SE7       30.22S
SHAWANO        DRIZZLE   51  47  86 SE5       30.23S
OCONTO         CLOUDY    53  41  63 E3        30.23S
STURGEON BAY   CLOUDY    52  37  58 S5        30.27R
GREEN BAY      CLOUDY    52  46  80 E6        30.23R
MANITOWOC      CLOUDY    49  44  83 CALM      30.24S
APPLETON       PTSUNNY   52  45  76 SE6       30.22S
CLINTONVILLE   CLOUDY    46  45  93 NE3       30.23R
OSHKOSH        CLOUDY    52  46  80 E6        30.21R
$$

WIZ032>034-041-042-053>061-061400-
SOUTHWEST WISCONSIN

CITY           SKY/WX    TMP DP  RH WIND       PRES   REMARKS
LA CROSSE      CLOUDY    57  53  86 E6        30.13R FOG
SPARTA         CLOUDY    54  52  95 E7        30.16R FOG
VIROQUA        CLOUDY    53  53 100 SE7       30.14R VSB<1/4
BOSCOBEL       CLOUDY    55  53  93 E5        30.15S FOG
PRAIRIE DU CHI CLOUDY    55  52  92 E6        30.14S FOG
PLATTEVILLE    CLOUDY    53  52  97 E9        30.15R
$$

WIZ056-057-062-063-064-067-068-061400-
SOUTH CENTRAL WISCONSIN

CITY           SKY/WX    TMP DP  RH WIND       PRES   REMARKS
REEDSBURG      FOG       51  50  99 E6        30.17S VSB 3/4
BARABOO/DELLS  NOT AVBL
LONE ROCK      CLOUDY    53  52  96 E9        30.16S FOG
MINERAL POINT  FOG       54  52  94 E6        30.15S VSB 1/4
MADISON        CLOUDY    51  49  92 E6        30.18S FOG
MIDDLETON      CLOUDY    52  52 100 E5        30.18S
WATERTOWN      CLOUDY    50  50 100 E5        30.19S FOG
MONROE         FOG       50  50 100 E7        30.16S VSB<1/4
JANESVILLE     CLOUDY    52  50  93 E5        30.18R FOG
$$

WIZ051-052-058>065-066-070>072-061400-
SOUTHEAST WISCONSIN

CITY           SKY/WX    TMP DP  RH WIND       PRES   REMARKS
MILWAUKEE      FOG       47  46  97 CALM      30.22R VSB 1/2
WAUKESHA       FOG       48  48 100 E6        30.21R VSB 1/2
MILWAUKEE/TIMM FOG       46  45  93 E5        30.22R VSB 1/4
RACINE         FOG       47  45  93 CALM      30.23R VSB<1/4
BURLINGTON     FOG       48  48 100 E7        30.20R VSB 1/4
KENOSHA        FOG       49  48  97 E3        30.21R VSB 1/4
FOND DU LAC    PTSUNNY   53  48  83 CALM      30.21R
SHEBOYGAN      CLOUDY    49  47  93 CALM      30.23R FOG
WEST BEND      FOG       46  46 100 E5        30.21S VSB<1/4
JUNEAU         CLOUDY    50  49  96 E6        30.21R FOG
$$

LSZ147-162-061400-
LAKE SUPERIOR

STATION/POSITION TIME  TEMP    WIND        PRES    WAVE
                       AIR SEA DIR/SP/G            HT/PER
                 (UTC) (F)     (DEG/KT/KT) (MB)    (FT/S)
W MID LAKE BUOY  1250   40 35   80/  8/ 10 1022.9R   1
DEVILS ISLAND    1300   49     110/  7/  7 1021.7R
PORT WING        1240   42      50/  2/  6 1021.0R
SAXON HARBOR     1200   52        CALM     1020.7
$$

LMZ867-665-643>646-061400-
LAKE MICHIGAN

STATION/POSITION TIME  TEMP    WIND        PRES    WAVE
                       AIR SEA DIR/SP/G            HT/PER
                 (UTC) (F)     (DEG/KT/KT) (MB)    (FT/S)
CHAMBERS ISLAND  1200   47        CALM     1024.0R
NORTHPORT PIER   1200   46     130/  4/  6 1024.0R
SISTER BAY       1217   53        CALM       N/A
KEWAUNEE LAKESHO 1200   45      30/  3/  5 1022.8R
SHEBOYGAN LAKESH 1300   44      30/  3/  4 1024.4R
PORT WASHINGTON  1200   45      60/  5/  7 1023.7R
ATWATER BUOY     1300   43      20/  6/  6 1024.1R
MILWAUKEE LAKESH 1300   44      50/  6/  7   N/A
KENOSHA   LAKESH 1300   44      20/  3/  3 1023.0R
$$

TC  - TEMPERATURE IN CELSIUS
VSB - VISIBILITY IN STATUTE MILES
WCI - WIND CHILL INDEX
HX  - HEAT INDEX



USA.gov is the U.S. government's official web portal to all federal, state and local government web resources and services.